User: anonymous   Login
Location: ??????
(38.5153°N, 23.0340°E)
Time: 04:27:48
(UTC+00:00)
Language:

Cosmos 1825 Rocket - Orbit

View from above orbital plane
View from above orbital plane
View from above satellite
View from above satellite

Ground track
Ground track

The orbit is defined by the following mean orbital elements,

1 17567U          26042.17762174 +.00000000 +00000-0 +52035-4 0 00007
2 17567  82.5288 117.6824 0017951 353.5166   6.5815 14.86106730    03
Epoch (UTC): 11 February 2026 04:15:46
Eccentricity: 0.0017951
inclination: 82.5288°
perigee height: 598 km
apogee height: 623 km
right ascension of ascending node: 117.6824°
argument of perigee: 353.5166°
revolutions per day: 14.86106730
mean anomaly at epoch: 6.5815°

The dashed part of the orbit path shows where the satellite is in the earth's shadow,  

DLR